Current weather by "City, St" or "zip code"  
 
Advertise Here

Current Conditions: Gadsden, Gadsden Municipal Airport, AL

Light Rain Fog/Mist


52.0 F

Last Updated on Jan 25 2021, 3:56 am CST
Humidity: 100%
Wind Speed: E 3.5 mph
Barometer 29.97 in
Dewpoint: 52.0 F
Visibility: 5.00 mi
Precip: --
Heat Index: NA
Wind Chill: NA
Current conditions at:

Gadsden, Gadsden Municipal Airport, AL (KGAD)

Lat: 33.96667 Lon: 86.08333

Local Radar Image active severe weather and emergency alerts image image weather storm and storm spotter reports image weather observation monitoring service image
Local
Radar
Active
Alerts
Storm Reports Obs
Monitoring

Sign-up For Email & Text Message Weather Alert Notification Services


Advertise Here

Observation History for Gadsden, Gadsden Municipal Airport, AL


Time Wind
(mph)
Vis
(mi)
Weather Precip (in) Temperature (F) Relative
Humidity
Wind
Chill
(F)
Heat
Index
(F)
Pressure
Air Dwpt altimeter
(in)
sea level
(mb)
Rmks
3:56 am CST E 3.5 5.00 Light Rain Fog/Mist -- 52.0 52.0 100% NA NA 29.97 1014.9
2:56 am CST E 3.5 1.75 Light Rain Fog/Mist -- 52.0 52.0 100% NA NA 29.99 1015.8
1:56 am CST NE 9.2 2.50 Light Rain Fog/Mist -- 52.0 52.0 100% 49 NA 29.97 1015.2
12:56 am CST E 5.8 5.00 Light Rain Fog/Mist -- 52.0 52.0 100% 50 NA 30.02 1016.9
11:56 pm CST NE 3.5 3.00 Rain Fog/Mist -- 52.0 52.0 100% NA NA 30.03 1017.1
10:56 pm CST N 3.5 4.00 Fog/Mist Trace 52.0 52.0 100% NA NA 30.05 1018.1
9:56 pm CST N 0.0 3.00 Light Rain Fog/Mist Trace 51.0 51.1 100% NA NA 30.07 1018.8
8:56 pm CST N 0.0 7.00 Light Rain Trace 51.0 50.0 96% NA NA 30.08 1019.0
7:56 pm CST N 0.0 10.00 Light Rain Trace 51.0 50.0 96% NA NA 30.08 1019.1
6:56 pm CST N 0.0 10.00 Light Rain Trace 53.0 48.9 86% NA NA 30.08 1019.3
5:56 pm CST N 0.0 8.00 Light Rain Trace 55.0 48.0 77% NA NA 30.08 1018.9
4:56 pm CST E 4.6 10.00 Overcast Trace 58.0 46.0 65% 58 NA 30.07 1018.8
3:56 pm CST N 0.0 10.00 Light Rain Trace 63.0 46.0 54% NA NA 30.07 1018.8
2:56 pm CST S 5.8 10.00 Overcast -- 64.0 45.0 50% NA NA 30.06 1018.5
1:56 pm CST SE 3.5 10.00 Overcast -- 64.0 43.0 46% NA NA 30.07 1018.8
12:56 pm CST S 5.8 10.00 Mostly Cloudy -- 63.0 42.1 47% 63 NA 30.09 1019.4
11:56 am CST 4.6 10.00 Mostly Cloudy -- 60.0 41.0 50% 60 NA 30.13 1020.7
10:56 am CST NE 6.9 10.00 Fair -- 55.0 37.9 53% 53 NA 30.15 1021.7
9:56 am CST NE 5.8 10.00 A Few Clouds -- 50.0 36.0 59% 48 NA 30.20 1023.1
8:56 am CST N 0.0 10.00 Fair -- 46.0 33.1 61% NA NA 30.20 1023.4
7:56 am CST N 0.0 10.00 Fair -- 36.0 30.9 82% NA NA 30.20 1023.3
6:56 am CST N 0.0 10.00 Fair -- 33.0 28.0 82% NA NA 30.19 1022.9
5:56 am CST E 4.6 10.00 Fair -- 38.0 25.0 60% 34 NA 30.18 1022.9
4:56 am CST NE 3.5 10.00 Fair -- 37.0 26.1 65% NA NA 30.19 1022.9

Regional Weather Observation


Gadsden, Gadsden Municipal Airport, AL (KGAD)

Light Rain Fog/Mist
52.0 F

Folsom Field Airport, AL (K3A1)

Partly Cloudy
82.0 F

Cullman Regional Folsom Field, AL (KCMD)

Fog/Mist
55.0 F

Scottsboro Municipal Airport, AL (K4A6)

Light Rain
50.0 F

Redstone Airfield, AL (KHUA)

Overcast
55.0 F

Huntsville, Huntsville International / Jones Field, AL (KHSV)

Light Rain Fog/Mist
54.0 F